Tracking 30918 objects as of 2-Jul-2025
HD Live streaming from Space Station
objects crossing your sky now

FENGYUN 1C DEB

Track FENGYUN 1C DEB now!
10-day predictions


NORAD ID: 37067
Int'l Code: 1999-025EFB
Perigee: 782.2 km
Apogee: 1,036.7 km
Inclination: 99.5 °
Period: 103.0 minutes
Semi major axis: 7280 km
RCS: 0.001 m2 (small)
Launch date: May 10, 1999
Source: People's Republic of China (PRC)
Launch site: Taiyaun Space Center, China (TSC)

Note: This is SATELLITE DEBRIS
Your satellite tracking list
BREEZE-M DEB
Track 1 satellite(s)




NASA's NSSDC Master Catalog

Two Line Element Set (TLE):
1 37067U 99025EFB 25183.05562567  .00002358  00000-0  15004-2 0  9993
2 37067  99.5487 117.8946 0174756 194.3303 165.2866 13.97548622840368
Source of the keplerian elements: AFSPC